Home   Weather   Columbus Park   Past weeks
Flag for USA

Past Weather in Columbus Park, Nebraska, USA — Yesterday and Last 2 Weeks

Now
58 °F

Clear.


Feels Like: 57 °F
Forecast: 58 / 42 °F
Wind: 7 mph from Southeast

Location: Millard Airport

Current Time: Oct 15, 2019 at 1:31:41 am

Latest Report: Oct 15, 2019 at 12:55 am


Visibility: 10 mi

Pressure: 29.78 "Hg

Humidity: 73%

Dew Point: 49 °F

Location of Columbus ParkLocation

Past Weather in Columbus Park — Graph

°F

Columbus Park Temperature Yesterday

Maximum temperature yesterday: 71 °F (at 4:35 pm)
Minimum temperature yesterday: 34 °F (at 5:35 am)
Average temperature yesterday: 52 °F

High & Low Weather Summary for the Past Weeks

 TemperatureHumidityPressure
High91 °F (Sep 30, 4:35 pm)97% (Oct 7, 2:35 am)30.40 "Hg (Oct 7, 2:35 am)
Low30 °F (Oct 12, 2:35 am)23% (Oct 12, 5:15 pm)29.73 "Hg (Oct 10, 8:35 am)
Average55 °F72%30.01 "Hg
* Reported Sep 30 12:15 am — Oct 15 12:35 am, Columbus Park. Weather by CustomWeather, © 2019

Note: Actual official high and low records may vary slightly from our data, if they occured in-between our weather recording intervals... More about our weather records

Advertising

Columbus Park Weather History for the Previous 24 Hours

Scroll right to see more
 ConditionsComfort  
Time TempWeatherWind HumidityBarometerVisibility
12:35 am
Tue, Oct 15
58 °FClear.5 mph72%29.78 "Hg10 mi
11:55 pm
Mon, Oct 14
59 °FClear.3 mph70%29.79 "Hg10 mi
11:35 pm60 °FClear.5 mph69%29.80 "Hg10 mi
11:15 pm61 °FClear.5 mph67%29.80 "Hg10 mi
10:55 pm60 °FClear.5 mph68%29.80 "Hg10 mi
10:35 pm60 °FClear.3 mph68%29.81 "Hg10 mi
10:15 pm60 °FClear.3 mph68%29.81 "Hg10 mi
9:55 pm60 °FClear.No wind69%29.82 "Hg10 mi
9:35 pm60 °FClear.3 mph67%29.81 "Hg10 mi
8:55 pm61 °FClear.6 mph67%29.81 "Hg10 mi
8:35 pm62 °FClear.6 mph66%29.81 "Hg10 mi
8:15 pm63 °FClear.7 mph64%29.81 "Hg10 mi
7:55 pm63 °FClear.9 mph62%29.81 "Hg10 mi
7:15 pm64 °FClear.8 mph60%29.80 "Hg10 mi
6:55 pm65 °FClear.9 mph57%29.80 "Hg10 mi
6:35 pm66 °FSunny.9 mph54%29.80 "Hg10 mi
6:15 pm68 °FSunny.10 mph50%29.81 "Hg10 mi
5:55 pm69 °FSunny.12 mph49%29.81 "Hg10 mi
5:35 pm70 °FSunny.13 mph47%29.81 "Hg10 mi
5:15 pm71 °FSunny.13 mph45%29.82 "Hg10 mi
4:55 pm71 °FSunny.17 mph44%29.82 "Hg10 mi
4:35 pm71 °FSunny.15 mph43%29.82 "Hg10 mi
4:15 pm70 °FSunny.13 mph44%29.83 "Hg10 mi
3:55 pm70 °FSunny.17 mph43%29.83 "Hg10 mi
3:35 pm70 °FSunny.13 mph43%29.84 "Hg10 mi
3:15 pm69 °FSunny.15 mph43%29.85 "Hg10 mi
2:55 pm69 °FSunny.14 mph44%29.86 "Hg10 mi
2:35 pm67 °FSunny.9 mph44%29.87 "Hg10 mi
2:15 pm65 °FSunny.9 mph45%29.89 "Hg10 mi
1:55 pm65 °FSunny.14 mph43%29.90 "Hg10 mi
1:35 pm64 °FSunny.8 mph44%29.92 "Hg10 mi
12:55 pm60 °FSunny.10 mph47%29.95 "Hg10 mi
12:35 pm59 °FSunny.10 mph47%29.96 "Hg10 mi
12:15 pm57 °FSunny.10 mph51%29.98 "Hg10 mi
11:55 am56 °FSunny.7 mph52%29.98 "Hg10 mi
11:35 am54 °FSunny.8 mph54%29.99 "Hg10 mi
11:15 am53 °FSunny.8 mph55%30.00 "Hg10 mi
10:55 am51 °FSunny.10 mph60%30.00 "Hg10 mi
10:35 am49 °FSunny.10 mph64%30.01 "Hg10 mi
10:15 am48 °FSunny.14 mph69%30.02 "Hg10 mi
9:55 am46 °FSunny.10 mph71%30.02 "Hg10 mi
9:35 am45 °FSunny.8 mph74%30.02 "Hg10 mi
9:15 am42 °FSunny.8 mph81%30.02 "Hg10 mi
8:55 am40 °FSunny.5 mph86%30.03 "Hg10 mi
8:35 am38 °FSunny.5 mph88%30.03 "Hg10 mi
7:55 am34 °FSunny.No wind95%30.02 "Hg10 mi
7:35 am35 °FSunny.No wind95%30.03 "Hg10 mi
6:55 am34 °FClear.No wind97%30.02 "Hg7 mi
6:35 am34 °FClear.No wind96%30.03 "Hg10 mi
6:15 am34 °FClear.No wind95%30.03 "Hg10 mi
5:55 am34 °FClear.No wind96%30.03 "Hg10 mi
5:35 am34 °FClear.No wind95%30.03 "Hg10 mi
5:15 am34 °FClear.No wind95%30.02 "Hg10 mi
4:55 am34 °FClear.No wind96%30.03 "Hg10 mi
4:35 am35 °FClear.No wind95%30.03 "Hg10 mi
4:15 am35 °FClear.No wind94%30.03 "Hg10 mi
3:55 am35 °FClear.No wind94%30.03 "Hg10 mi
3:35 am35 °FClear.No wind96%30.04 "Hg10 mi
2:55 am35 °FClear.No wind95%30.04 "Hg10 mi
2:35 am36 °FFog.No wind95%30.03 "Hg4 mi
2:15 am36 °FClear.No wind96%30.03 "Hg10 mi
1:55 am36 °FClear.No wind95%30.03 "Hg10 mi
1:35 am36 °FClear.No wind94%30.02 "Hg10 mi
Weather by CustomWeather, © 2019

See weather overview